Regional Weather Roundup
Issued by NWS Wakefield, VA

Home | Current Version | Previous Version | Text Only | Print | Product List | Glossary Off
Versions: 1 2 3 4 5 6 7 8 9 10 11 12 13 14 15 16 17 18 19 20 21 22 23 24 25 26 27

000
ASUS41 KAKQ 281115
RWRAKQ

REGIONAL WEATHER ROUNDUP
NATIONAL WEATHER SERVICE WAKEFIELD VA
700 AM EDT THU JUL 28 2016

Note: "fair" indicates few or no clouds below 12,000 feet with no
significant weather and/or obstructions to visibility. * = Denotes
station may not report precipitation (e.g., rain,snow,etc.),
thunder or fog.

VAZ042-051-052>054-056-281200-
NORTHERN VIRGINIA

CITY           SKY/WX    TMP DP  RH WIND       PRES   REMARKS
WASH NATIONAL  MOCLDY    83  74  74 SW3       29.91R
DULLES         MOCLDY    75  70  84 W3        29.92R
FORT BELVOIR   PTCLDY    75  73  94 CALM      29.90R
QUANTICO       MOCLDY    79  74  84 W3        29.91R
FREDERICKSBRG* FAIR      75  75 100 CALM      29.91R
STAFFORD*      FAIR      72  71  96 CALM      29.95S FOG
WARRENTON      FAIR      74  70  86 CALM      29.92R FOG
CULPEPER*      FAIR      74  74 100 CALM      29.93R FOG
MANASSAS*      CLEAR     75  75 100 CALM      29.91R
LEESBURG*      FAIR      77  73  88 W9        29.93R
WINCHESTER     FAIR      73  72  94 CALM      29.94S
FRONT ROYAL*   FAIR      72  70  94 S5        29.94R
LURAY*         FAIR     N/A N/A N/A CALM      29.97R HAZE
$$

VAZ048-049-060>072-079>083-281200-
CENTRAL AND SOUTH CENTRAL VIRGINIA

CITY           SKY/WX    TMP DP  RH WIND       PRES   REMARKS
RICHMOND       MOCLDY    75  73  93 CALM      29.91S
CHESTERFIELD*  FAIR      73  63  68 CALM      29.93S
PETERSBURG*    LGT RAIN N/A N/A N/A CALM      29.93R
HANOVER        FAIR      75  72  90 CALM      29.93S
TAPPAHANNOCK*  FAIR      74  74 100 CALM      29.92S
QUINTON*       FAIR      74  74 100 CALM      29.91S
CHARLOTTSVILLE MOCLDY    75  72  90 CALM      29.93S
GORDONSVILLE*  PTSUNNY   73  73 100 CALM      29.92S
ORANGE*          N/A     73  73 100 CALM      29.95R
LOUISA*        FAIR      75  75 100 CALM      29.92S
BUMPASS*       FAIR      72  72 100 CALM      29.92R
FARMVILLE*     FAIR     N/A N/A N/A CALM      29.93R HAZE
CREWE*         NOT AVBL
FORT PICKETT*  FAIR      73  72  98 CALM      29.93S
CHASE CITY*    FAIR      73  71  94 CALM      29.94S
CLARKSVILLE*   FAIR      72  72 100 CALM      29.94R
SOUTH HILL*    FAIR      72  72 100 CALM      29.99S
LAWRENCEVILLE* CLOUDY    73  73 100 CALM      29.93S
EMPORIA*         N/A     72  72 100 CALM      29.94S
$$

VAZ088>098-281200-
SOUTHEAST VIRGINIA

CITY           SKY/WX    TMP DP  RH WIND       PRES   REMARKS
NORFOLK        FAIR      82  77  84 CALM      29.91S
VIRGINIA BEACH FAIR      86  77  74 SW3       29.90S HX  97
NORFOLK NAVAL  FAIR      82  76  81 W5        29.93R
WEST POINT*    FAIR      74  74  97 CALM      29.93S
SALUDA*        FAIR      75  75 100 CALM      29.91R
NEWPORT NEWS   FAIR      78  76  93 CALM      29.92R
LANGLEY AFB    FAIR      79  78  95 W2        29.92R
FORT EUSTIS    FAIR      80  75  85 VRB1      29.90R
WILLIAMSBURG*    N/A     79  79 100 CALM      29.92F
HR EXEC AP*    CLOUDY    79  75  89 CALM      29.94S VSB 1/4
FRANKLIN*      FAIR      76  75  98 CALM      29.93S FOG
US460-WAKEFLD  FAIR      75  73  93 CALM      29.92S FOG
$$

VAZ020-022-025-037-045-281200-
WEST CENTRAL AND SOUTHWEST VIRGINIA

CITY           SKY/WX    TMP DP  RH WIND       PRES   REMARKS
STAUNTON*      FAIR      69  69  99 CALM      30.00S FOG
WAYNESBORO*    FAIR      70  69  96 CALM      30.00S
HOT SPRINGS VA DRIZZLE   68  68 100 NW5       30.10F
LYNCHBURG      FAIR      72  72 100 CALM      29.97S
DANVILLE       FAIR      71  71 100 CALM      29.95S FOG
SOUTH BOSTON*    N/A    N/A N/A N/A CALM      29.94S VSB 3/4
MARTINSVILLE   FAIR      69  68  98 CALM      29.99S FOG
ROANOKE        MOCLDY    75  73  93 W6        30.00S
BLACKSBURG     FAIR      71  70  98 NW3       30.07R
DUBLIN*        FAIR      71  71 100 CALM      30.06R FOG
MARION*        CLOUDY    71  69  95 CALM      30.09S FOG
HILLSVILLE*    FAIR      69  69 100 CALM      30.06S
RICHLANDS*     FOG       66  66 100 CALM      30.07F VSB 3/4
WISE*          FAIR      66  64  94 SW5       30.08R
ABINGDON*      FOG       72  72 100 CALM      30.05S VSB 1
$$

MDZ021>025-VAZ099-100-281200-
SOUTHERN MARYLAND AND THE DELMARVA PENINSULA

CITY           SKY/WX    TMP DP  RH WIND       PRES   REMARKS
PATUXENT RIVER PTCLDY    78  75  90 SW5       29.90R
BAY BRIDGE APT CLOUDY    82  79  89 CALM      29.90R
LEONARDTOWN    CLEAR     75  73  94 CALM      29.92R
DOVER          SUNNY     76  76 100 CALM      29.90R
GEORGETOWN     CLOUDY    78  77  96 CALM      29.92R FOG
EASTON         MOCLDY    81  81 100 CALM      29.94R
CAMBRIDGE      CLEAR     73  73 100 CALM      29.90R
SALISBURY      CLEAR     76  75  97 SE3       29.91S FOG
OCEAN CITY     SUNNY    N/A N/A N/A CALM      29.91S
WALLOPS ISLAND FAIR      81  78  91 CALM      29.91S FOG
ACCOMACK*      NOT AVBL
$$

NCZ012>017-030>032-281200-
NORTH CENTRAL AND EASTERN NORTH CAROLINA

CITY           SKY/WX    TMP DP  RH WIND       PRES   REMARKS
ROANOKE RAPIDS FAIR      72  72 100 CALM      29.93S FOG
RALEIGH        MOCLDY    74  72  93 CALM      29.94R
ELIZABETH CITY MOCLDY    79  75  87 SW5       29.92S
AHOSKIE*       CLEAR     75  74  98 CALM      29.93R
EDENTON*       PTCLDY    81  80  98 CALM      29.94R
CURRITUCK*     CLEAR     78  77  94 CALM      29.93R
KILL DEVIL HLS PTCLDY    81  75  82 SW3       29.92R
MANTEO           N/A     79  76  90 W5        29.94R
CAPE HATTERAS  PTCLDY    81  77  88 SW5       29.95R
TARBORO*       FAIR      76  75  97 CALM      29.93S FOG
GOLDSBORO      CLEAR     80  80 100 SW6       29.91R
WASHINGTON     CLEAR     78  75  92 CALM      29.93R
GREENVILLE     CLEAR     79  77  94 W3        29.94S
NEW BERN       CLEAR     78  76  93 SW7       29.94R
WILMINGTON     CLEAR     81  77  88 SW8       29.96R
$$

VAZ048-281200-
ELSEWHERE

CITY           SKY/WX    TMP DP  RH WIND       PRES   REMARKS
HARRISBURG PA  CLOUDY    74  68  81 CALM      29.91R
BALTIMORE      MOCLDY    79  72  79 N3        29.90R
ANNAPOLIS      CLOUDY    82  77  84 CALM      29.89S
ANDREWS AFB    FAIR      77  75  93 CALM      29.90S
PHILADELPHIA   PTSUNNY   78  69  73 CALM      29.91S
GREENSBORO     MOCLDY    74  72  93 CALM      29.96R
ROCKY MOUNT    CLEAR     76  76 100 CALM      29.93R FOG
$$

VAZ100-281200-
MARINE

STATION/POSITION TIME  TEMP    WIND        PRES    WAVE   SWELL
                       AIR SEA DIR/SP/G            HT/PER HT/PER
                 (UTC) (F)     (DEG/KT/KT) (MB)    (FT/S) (FT/S)
BRANDYWINE LGT   1000   77     200/  3/  4   N/A
CAPE MAY NJ      1000   74 71  110/  1/  1 1012.2R
LEWES DE         1000   78 74  220/  2/  3 1012.5R
OCEAN-CITY-INLET 1000   75 70  150/  1/  2 1013.0R
WACHAPREAGUE VA  1000   78 85   CALM  /  1 1012.5R
THOMAS POINT MD  1100   83 85   CALM  /  2 1013.8R
GOOSES REEF MD   1100   82 85  250/  4/  6 1013.5R   0
COVE POINT MD    1000   80     250/  3/  3 1012.7R
SOLOMONS ISLAND  1000   80 86  240/  3/  4   N/A
BISHOPS HEAD MD  1000   83 87  200/  5/  5 1012.7R
PINEY POINT MD   1000          290/  5/  6   N/A
POTOMAC MD       1100   82 86  260/  6/  8 1011.4S
CAMBRIDGE MD     1000   80 88  170/  2/  3 1011.5R
LEWISETTA VA     1000   78 87  240/  5/  6 1012.1R
RAPPAHANNOCK LGT 1000          280/  6/  7 1013.2R
STINGRAY PT      1100   81 85  190/  4/  6 1013.2R   0
YORK RVR RNG VA  1000   80     320/  8/  9 1012.2R
YORKTOWN VA      1000   79 85  300/  4/  5 1012.3R
JAMESTOWN VA     1100   81 89  360/  2/  4   N/A     0
DOMINION TERM VA 1000   81     340/  4/  6 1012.8R
KIPTOPEKE VA     1000      80  300/  2/  2   N/A
CHES BAY BRIDGE  1000   82 72  250/  6/  8 1012.7R
CAPE HENRY VA    1000   80     260/  4/  5   N/A
WILLOUBY STN VA  1000   81     290/  5/  6   N/A
CAPE HENRY BUOY  1012      75                N/A     1/ 8
1ST LANDING BUOY 1100   82 80  310/  4/  6 1012.7R   1
CAPE CHARLES BUO 1026      78                N/A     1/ 8
OFFSHORE WE BUOY 1021      82                N/A     2/ 6
64NM E OF VA BCH 1050   81 81  240/  6/  6 1013.0R   2/ 6   2/ 6
DUCK PIER NC     1000   82 72  260/  8/ 13 1012.6R
44100 DUCK FRF   1005      78                N/A     1/ 8
44056 DUCK FRF   1011      77                N/A     1/ 8
OREGON INLET NC  1000   81 84  250/  6/  9 1013.3R
HATTERAS NC      1000   81 82  240/  4/  7 1013.4R
DIAMOND SHLS NC  1050   84 84  230/  8/  8 1014.2R   2/ 6   2/ 6
CAPE LOOKOUT NC  1100   83     220/  7/  9 1013.8R
$$




USA.gov is the U.S. government's official web portal to all federal, state and local government web resources and services.